Weather History for Joplin, MO

Change the Weather History Date:

Wednesday, January 16, 2013

  Actual Average Record
Temperature  
Mean Temperature 27 °F 35 °F  
Max Temperature 42 °F 45 °F 69 °F (1952)
Min Temperature 12 °F 25 °F -1 °F (1977)
Degree Days  
Heating Degree Days 38 30  
Month to date heating degree days 493 480  
Since 1 July heating degree days 1990 2097  
Cooling Degree Days 0 0  
Month to date cooling degree days 0 0  
Year to date cooling degree days 0 0  
Moisture  
Dew Point 17 °F    
Average Humidity 69    
Maximum Humidity 96    
Minimum Humidity 41    
Precipitation  
Precipitation 0.00 in 0.07 in 0.97 in (2004)
Month to date precipitation 0.86 1.07  
Year to date precipitation 0.86 1.07  
Sea Level Pressure  
Sea Level Pressure 30.18 in    
Wind  
Wind Speed 7 mph (SSW)    
Max Wind Speed 16 mph    
Max Gust Speed 21 mph    
Visibility 10 miles    
Events      
T = Trace of Precipitation, MM = Missing Value Source: NWS Daily Summary

Daily Weather History Graph

Daily Weather History Graph

Search for Another Location

Airport:

Trip Planner

Search our weather history database for the weather conditions in past years. The results will help you decide how hot, cold, wet, or windy it might be!

Date:

Astronomy

Jan. 16, 2013 Rise Set
Actual Time 7:30 AM CST 5:25 PM CST
Civil Twilight 7:01 AM CST 5:54 PM CST
Nautical Twilight 6:29 AM CST 6:26 PM CST
Astronomical Twilight 5:58 AM CST 6:57 PM CST
Moon 10:15 AM CST (1/16) 11:08 PM CST (1/16)
Length of Visible Light 10h 52m
Length of Day
9h 55m
Waxing Crescent, 28% of the Moon is Illuminated
Jan 16
Waxing Crescent
Jan 18
First Quarter
Jan 26
Full
Feb 3
Last Quarter
Feb 10
New

Hourly Weather History & Observations

Time (CST) Temp. Windchill Dew Point Humidity Pressure Visibility Wind Dir Wind Speed Gust Speed Precip Events Conditions
12:53 AM 16.0 °F - 12.0 °F 84% 30.24 in 9.0 mi Calm Calm - N/A   Clear
1:53 AM 15.1 °F - 12.0 °F 88% 30.23 in 7.0 mi Calm Calm - N/A   Clear
2:53 AM 15.1 °F - 10.9 °F 84% 30.22 in 7.0 mi Calm Calm - N/A   Clear
3:53 AM 16.0 °F 7.4 °F 12.9 °F 88% 30.20 in 10.0 mi SSE 5.8 mph - N/A   Clear
4:53 AM 14.0 °F - 12.0 °F 92% 30.18 in 9.0 mi Calm Calm - N/A   Clear
5:53 AM 15.1 °F 6.4 °F 12.0 °F 88% 30.19 in 9.0 mi SSE 5.8 mph - N/A   Clear
6:53 AM 15.1 °F 6.4 °F 10.0 °F 80% 30.20 in 9.0 mi South 5.8 mph - N/A   Clear
7:53 AM 16.0 °F 7.4 °F 12.0 °F 84% 30.21 in 9.0 mi South 5.8 mph - N/A   Clear
8:53 AM 21.9 °F 12.5 °F 17.1 °F 82% 30.21 in 10.0 mi South 8.1 mph - N/A   Clear
9:53 AM 28.9 °F 21.1 °F 19.0 °F 67% 30.21 in 10.0 mi SW 8.1 mph - N/A   Clear
10:53 AM 32.0 °F 22.5 °F 19.9 °F 61% 30.21 in 10.0 mi SW 12.7 mph - N/A   Clear
11:53 AM 35.1 °F 26.9 °F 21.9 °F 59% 30.17 in 10.0 mi SW 11.5 mph - N/A   Clear
12:53 PM 37.0 °F 28.5 °F 23.0 °F 57% 30.14 in 10.0 mi SW 13.8 mph 18.4 mph N/A   Clear
1:53 PM 39.2 °F 32.0 °F 21.2 °F 49% 30.10 in 10.0 mi SW 11.5 mph - N/A   Clear
2:53 PM 41.0 °F 34.3 °F 21.9 °F 47% 30.12 in 10.0 mi WSW 11.5 mph - N/A   Clear
3:53 PM 41.0 °F 34.7 °F 19.9 °F 43% 30.13 in 10.0 mi WSW 10.4 mph - N/A   Clear
4:53 PM 39.9 °F 34.5 °F 19.9 °F 45% 30.14 in 10.0 mi SW 8.1 mph - N/A   Clear
5:53 PM 34.0 °F 28.8 °F 19.9 °F 56% 30.15 in 10.0 mi SSW 5.8 mph - N/A   Clear
6:53 PM 34.0 °F 29.8 °F 19.9 °F 56% 30.17 in 10.0 mi West 4.6 mph - N/A   Clear
7:53 PM 32.0 °F 25.6 °F 19.9 °F 61% 30.17 in 10.0 mi South 6.9 mph - N/A   Clear
8:53 PM 30.0 °F 23.2 °F 19.9 °F 66% 30.18 in 10.0 mi South 6.9 mph - N/A   Clear
9:53 PM 28.9 °F 21.9 °F 19.9 °F 69% 30.19 in 10.0 mi South 6.9 mph - N/A   Clear
10:53 PM 30.0 °F 24.1 °F 19.9 °F 66% 30.19 in 10.0 mi SW 5.8 mph - N/A   Clear
11:53 PM 30.0 °F 24.1 °F 19.9 °F 66% 30.20 in 10.0 mi SSW 5.8 mph - N/A   Clear